Zurück zum Katalog

STARLINK-35482

AktivKommunikationVLEO
NORAD 66346·PAYLOAD·🇺🇸 United States

Gestartet Nov 6, 2025 von Cape Canaveral Space Force Station

Loading…

Nächste Überflüge (nächste 24 Stunden)

TLE

AktuellSource: CelesTrak SupGP

Epoche: Sep 14, 2026, 23:12 UTC

1 66346C 25253AD  26257.96715278  .00004665  00000+0  16895-3 0  2578
2 66346  43.0027 223.3821 0001353 265.4848 111.9654 15.27578881    13

Verfolge STARLINK-35482 in Echtzeit mit AllMySat

Download on the App Store